Overview Statistics Trail Chart Weather Telemetry Raw packets
 

This is the latest recevied weather packets stored in our database for station/object AA6HF. If no packets are shown the sender has not sent any weather packets the latest 10 day(s).

<< 46 47 48 49 50 51 52 >>
Time Temp. Humidity Pressure Rain* Wind** Luminosity Snow
1788370032 33.33° C 14% 1011.1 hPa 0 mm - - -
1788369732 32.78° C 13% 1011.1 hPa 0 mm - - -
1788369432 32.22° C 14% 1011.1 hPa 0 mm - - -
1788369132 32.78° C 14% 1011 hPa 0 mm - - -
1788368832 32.22° C 15% 1011 hPa 0 mm - - -
1788368532 32.22° C 15% 1011 hPa 0 mm - - -
1788368232 31.67° C 16% 1011 hPa 0 mm - - -
1788367932 31.67° C 16% 1010.9 hPa 0 mm - - -
1788367632 31.67° C 16% 1010.9 hPa 0 mm - - -
1788367332 31.67° C 16% 1010.9 hPa 0 mm - - -
1788367032 31.11° C 16% 1010.8 hPa 0 mm - - -
1788366732 31.67° C 16% 1010.7 hPa 0 mm - - -
1788366433 31.67° C 17% 1010.8 hPa 0 mm - - -
1788366133 31.11° C 17% 1010.9 hPa 0 mm - - -
1788365833 30.56° C 18% 1010.8 hPa 0 mm - - -
1788365533 30° C 17% 1010.7 hPa 0 mm - - -
1788365233 30° C 17% 1010.7 hPa 0 mm - - -
1788364933 30° C 17% 1010.7 hPa 0 mm - - -
1788364652 30° C 16% 1010.7 hPa 0 mm - - -
1788364333 30° C 18% 1010.8 hPa 0 mm - - -
1788364033 30° C 18% 1010.6 hPa 0 mm - - -
1788363733 30° C 19% 1010.6 hPa 0 mm - - -
1788363433 29.44° C 23% 1010.7 hPa 0 mm - - -
1788363133 29.44° C 22% 1010.6 hPa 0 mm - - -
1788362833 29.44° C 23% 1010.6 hPa 0 mm - - -

* Rain latest hour (hover to see other rain measurements)
** Current wind speed in m/s (hover to see current wind gust speed)